Location: Burbank
(38.7788°N, 114.0429°W)
Time: 02:24:37
(UTC+00:00)

Tiros 1 despin weight - Pass Details

Date: 11 May 2026
Orbit: 554 x 591 km, 48.2° (Epoch: 6 June)

Event Time Altitude Azimuth Distance (km) Brightness Sun altitude
Rises 20:14:50 0° 299° (WNW) 2,730 ? 67.3°
Reaches altitude 10° 20:17:07 10° 296° (WNW) 1,834 ? 67.1°
Maximum altitude 20:21:13 57° 218° (SW) 657 ? 66.7°
Drops below altitude 10° 20:25:20 10° 139° (SE) 1,837 ? 66.3°
Sets 20:27:36 0° 135° (SE) 2,735 ? 66.1°
